| time (UTC) | temp F | wind direction | speed MPH | gust MPH | rain 1hr in | rain 24hr in | rain mn in | humidity % | barometer mb |
| 20260901191555 | 76 | 203 | 14.0 | 24.0 | 0.00 | 0.09 | 0.00 | 48 | 1013.5 |
| 20260901190105 | 74 | 202 | 13.0 | 22.0 | 0.00 | 0.14 | 0.00 | 51 | 1013.7 |
| 20260901184552 | 73 | 200 | 11.0 | 21.0 | 0.00 | 0.14 | 0.00 | 53 | 1014.1 |
| 20260901183048 | 73 | 192 | 11.0 | 18.0 | 0.00 | 0.14 | 0.00 | 54 | 1014.3 |
| 20260901181547 | 73 | 211 | 11.0 | 21.0 | 0.00 | 0.14 | 0.00 | 54 | 1014.2 |
| 20260901180043 | 72 | 213 | 10.0 | 19.0 | 0.00 | 0.14 | 0.00 | 59 | 1014.5 |
| 20260901174542 | 71 | 207 | 7.0 | 14.0 | 0.00 | 0.14 | 0.00 | 56 | 1014.4 |
| 20260901173042 | 72 | 196 | 9.0 | 17.0 | 0.00 | 0.14 | 0.00 | 57 | 1014.3 |
| 20260901171556 | 72 | 188 | 9.0 | 20.0 | 0.00 | 0.14 | 0.00 | 58 | 1014.4 |
| 20260901170040 | 71 | 186 | 10.0 | 20.0 | 0.00 | 0.14 | 0.00 | 58 | 1014.4 |
| 20260901164538 | 71 | 171 | 9.0 | 16.0 | 0.00 | 0.14 | 0.00 | 59 | 1014.3 |
| 20260901163033 | 70 | 217 | 9.0 | 16.0 | 0.00 | 0.14 | 0.00 | 61 | 1014.3 |
| 20260901161531 | 70 | 162 | 7.0 | 14.0 | 0.00 | 0.14 | 0.00 | 63 | 1014.4 |
| 20260901160027 | 64 | 330 | 0.0 | 4.0 | 0.00 | 0.14 | 0.00 | 75 | 1014.5 |
| 20260901154521 | 60 | 58 | 0.0 | 0.0 | 0.00 | 0.14 | 0.00 | 79 | 1014.7 |
| 20260901153017 | 57 | 347 | 0.0 | 3.0 | 0.00 | 0.14 | 0.00 | 83 | 1014.8 |
| 20260901151517 | 57 | 343 | 1.0 | 3.0 | 0.00 | 0.14 | 0.00 | 81 | 1014.7 |
| 20260901150014 | 56 | 83 | 0.0 | 4.0 | 0.00 | 0.14 | 0.00 | 85 | 1014.7 |
| 20260901144511 | 55 | 99 | 0.0 | 2.0 | 0.00 | 0.14 | 0.00 | 86 | 1014.7 |
| 20260901143011 | 54 | 56 | 1.0 | 3.0 | 0.00 | 0.14 | 0.00 | 86 | 1014.6 |
| 20260901141515 | 55 | 309 | 0.0 | 0.0 | 0.00 | 0.14 | 0.00 | 87 | 1014.6 |
| 20260901140008 | 53 | 266 | 0.0 | 0.0 | 0.00 | 0.14 | 0.00 | 89 | 1014.4 |
| 20260901134511 | 50 | 175 | 0.0 | 0.0 | 0.00 | 0.14 | 0.00 | 92 | 1014.3 |
| 20260901133006 | 50 | 175 | 0.0 | 0.0 | 0.00 | 0.14 | 0.00 | 92 | 1014.4 |
| 20260901131505 | 49 | 226 | 0.0 | 2.0 | 0.00 | 0.14 | 0.00 | 93 | 1014.3 |
| 20260901130005 | 49 | 176 | 0.0 | 0.0 | 0.00 | 0.14 | 0.00 | 92 | 1014.1 |
| 20260901124505 | 48 | 202 | 0.0 | 0.0 | 0.00 | 0.14 | 0.00 | 93 | 1014.0 |
| 20260901123007 | 49 | 193 | 0.0 | 1.0 | 0.00 | 0.14 | 0.00 | 92 | 1014.0 |
| 20260901121502 | 49 | 286 | 0.0 | 0.0 | 0.00 | 0.14 | 0.00 | 92 | 1013.9 |
| 20260901120003 | 49 | 150 | 0.0 | 0.0 | 0.00 | 0.14 | 0.00 | 92 | 1014.0 |
| 20260901114602 | 49 | 221 | 0.0 | 0.0 | 0.00 | 0.14 | 0.00 | 92 | 1014.0 |
| 20260901113059 | 49 | 221 | 0.0 | 0.0 | 0.00 | 0.14 | 0.00 | 92 | 1013.9 |
| 20260901111558 | 49 | 221 | 0.0 | 0.0 | 0.00 | 0.14 | 0.00 | 91 | 1013.9 |
| 20260901110057 | 49 | 221 | 0.0 | 0.0 | 0.00 | 0.14 | 0.00 | 91 | 1013.8 |
| 20260901104554 | 49 | 221 | 0.0 | 0.0 | 0.00 | 0.14 | 0.00 | 91 | 1013.6 |
| 20260901103103 | 49 | 226 | 0.0 | 0.0 | 0.00 | 0.14 | 0.00 | 91 | 1013.7 |
| 20260901101552 | 50 | 238 | 0.0 | 0.0 | 0.00 | 0.14 | 0.00 | 91 | 1013.7 |
| 20260901100050 | 50 | 222 | 0.0 | 1.0 | 0.00 | 0.14 | 0.00 | 90 | 1013.8 |
| 20260901094548 | 50 | 252 | 0.0 | 1.0 | 0.00 | 0.14 | 0.00 | 90 | 1013.7 |
| 20260901093047 | 51 | 205 | 0.0 | 2.0 | 0.00 | 0.14 | 0.00 | 89 | 1013.8 |
| 20260901091551 | 51 | 193 | 0.0 | 1.0 | 0.00 | 0.14 | 0.00 | 89 | 1013.9 |
| 20260901090044 | 51 | 207 | 0.0 | 3.0 | 0.00 | 0.14 | 0.00 | 89 | 1014.0 |
| 20260901084543 | 52 | 181 | 0.0 | 1.0 | 0.00 | 0.14 | 0.00 | 89 | 1014.1 |
| 20260901083041 | 52 | 210 | 0.0 | 2.0 | 0.00 | 0.14 | 0.00 | 89 | 1013.9 |
| 20260901081545 | 52 | 231 | 0.0 | 2.0 | 0.00 | 0.14 | 0.00 | 89 | 1014.1 |
| 20260901080040 | 52 | 159 | 0.0 | 2.0 | 0.00 | 0.14 | 0.00 | 89 | 1014.0 |
| 20260901074540 | 52 | 213 | 0.0 | 2.0 | 0.00 | 0.14 | 0.00 | 89 | 1014.2 |
| 20260901073038 | 52 | 156 | 0.0 | 2.0 | 0.00 | 0.14 | 0.00 | 89 | 1014.1 |
| 20260901071537 | 52 | 221 | 0.0 | 1.0 | 0.00 | 0.14 | 0.00 | 88 | 1014.3 |
| 20260901070037 | 52 | 170 | 0.0 | 3.0 | 0.00 | 0.14 | 0.00 | 88 | 1014.3 |
| 20260901064539 | 53 | 164 | 0.0 | 4.0 | 0.00 | 0.14 | 0.00 | 88 | 1014.1 |
| 20260901063037 | 53 | 200 | 0.0 | 1.0 | 0.00 | 0.14 | 0.00 | 88 | 1014.1 |
| 20260901061527 | 54 | 195 | 0.0 | 2.0 | 0.00 | 0.14 | 0.00 | 86 | 1013.9 |
| 20260901060023 | 54 | 233 | 0.0 | 1.0 | 0.00 | 0.14 | 0.14 | 84 | 1013.7 |
| 20260901054532 | 55 | 131 | 0.0 | 1.0 | 0.00 | 0.14 | 0.14 | 83 | 1013.7 |
| 20260901053020 | 55 | 93 | 1.0 | 2.0 | 0.00 | 0.14 | 0.14 | 83 | 1013.6 |
| 20260901051521 | 56 | 330 | 0.0 | 3.0 | 0.00 | 0.14 | 0.14 | 81 | 1013.6 |
| 20260901050021 | 55 | 307 | 0.0 | 2.0 | 0.00 | 0.14 | 0.14 | 83 | 1013.6 |
| 20260901044519 | 55 | 206 | 0.0 | 1.0 | 0.00 | 0.14 | 0.14 | 83 | 1013.6 |
| 20260901043022 | 55 | 251 | 0.0 | 2.0 | 0.00 | 0.14 | 0.14 | 83 | 1013.6 |
| 20260901041518 | 55 | 320 | 0.0 | 4.0 | 0.00 | 0.14 | 0.14 | 81 | 1013.8 |
| 20260901040017 | 57 | 89 | 0.0 | 3.0 | 0.00 | 0.14 | 0.14 | 78 | 1013.7 |
| 20260901034526 | 57 | 34 | 1.0 | 7.0 | 0.00 | 0.14 | 0.14 | 77 | 1013.9 |
| 20260901033017 | 57 | 261 | 0.0 | 7.0 | 0.00 | 0.14 | 0.14 | 78 | 1014.1 |
| 20260901031526 | 57 | 44 | 3.0 | 9.0 | 0.01 | 0.14 | 0.14 | 80 | 1013.6 |
| 20260901030015 | 57 | 43 | 3.0 | 10.0 | 0.01 | 0.14 | 0.14 | 79 | 1013.5 |
| 20260901024514 | 57 | 72 | 2.0 | 11.0 | 0.02 | 0.14 | 0.14 | 79 | 1013.7 |
| 20260901023020 | 57 | 88 | 2.0 | 7.0 | 0.08 | 0.14 | 0.14 | 84 | 1013.6 |
| 20260901021512 | 56 | 46 | 9.0 | 17.0 | 0.07 | 0.13 | 0.13 | 82 | 1012.9 |
| 20260901020012 | 56 | 68 | 10.0 | 17.0 | 0.07 | 0.13 | 0.13 | 84 | 1012.9 |
| 20260901014507 | 56 | 322 | 4.0 | 12.0 | 0.05 | 0.11 | 0.11 | 80 | 1013.1 |
| 20260901013005 | 58 | 68 | 4.0 | 17.0 | 0.00 | 0.06 | 0.06 | 74 | 1012.3 |
| 20260901011501 | 59 | 59 | 10.0 | 24.0 | 0.00 | 0.06 | 0.06 | 68 | 1012.1 |
| 20260901010059 | 62 | 44 | 10.0 | 24.0 | 0.00 | 0.06 | 0.06 | 63 | 1011.5 |
| 20260901004601 | 67 | 53 | 9.0 | 14.0 | 0.00 | 0.06 | 0.06 | 46 | 1010.8 |
| 20260901003057 | 65 | 56 | 4.0 | 8.0 | 0.00 | 0.06 | 0.06 | 56 | 1010.3 |
| 20260901001559 | 65 | 46 | 6.0 | 14.0 | 0.00 | 0.06 | 0.06 | 54 | 1010.1 |
| 20260901000056 | 66 | 30 | 6.0 | 18.0 | 0.00 | 0.06 | 0.06 | 50 | 1009.7 |
| 20260831234600 | 74 | 78 | 4.0 | 8.0 | 0.00 | 0.06 | 0.06 | 47 | 1009.3 |
| 20260831233056 | 73 | 193 | 2.0 | 10.0 | 0.00 | 0.06 | 0.06 | 46 | 1008.8 |
| 20260831231555 | 74 | 183 | 12.0 | 26.0 | 0.00 | 0.06 | 0.06 | 43 | 1008.5 |
| 20260831230054 | 76 | 181 | 13.0 | 23.0 | 0.00 | 0.06 | 0.06 | 42 | 1008.0 |
| 20260831224553 | 78 | 205 | 6.0 | 20.0 | 0.00 | 0.06 | 0.06 | 41 | 1007.9 |
| 20260831223052 | 79 | 212 | 15.0 | 25.0 | 0.00 | 0.06 | 0.06 | 39 | 1008.1 |
| 20260831221610 | 79 | 212 | 12.0 | 22.0 | 0.00 | 0.06 | 0.06 | 41 | 1008.2 |
| 20260831220050 | 78 | 169 | 10.0 | 23.0 | 0.00 | 0.06 | 0.06 | 42 | 1008.4 |
| 20260831214550 | 79 | 187 | 11.0 | 21.0 | 0.00 | 0.06 | 0.06 | 42 | 1008.7 |
| 20260831213048 | 78 | 182 | 10.0 | 21.0 | 0.00 | 0.06 | 0.06 | 44 | 1009.0 |
| 20260831211548 | 76 | 209 | 16.0 | 26.0 | 0.00 | 0.06 | 0.06 | 46 | 1009.1 |
| 20260831210049 | 77 | 226 | 11.0 | 20.0 | 0.00 | 0.06 | 0.06 | 46 | 1009.1 |
| 20260831204546 | 77 | 197 | 13.0 | 26.0 | 0.00 | 0.06 | 0.06 | 48 | 1009.0 |
| 20260831203104 | 76 | 180 | 13.0 | 26.0 | 0.00 | 0.06 | 0.06 | 48 | 1008.7 |
| 20260831201553 | 76 | 157 | 12.0 | 20.0 | 0.00 | 0.06 | 0.06 | 50 | 1009.3 |
| 20260831200129 | 74 | 173 | 11.0 | 20.0 | 0.01 | 0.06 | 0.06 | 52 | 1009.5 |
| 20260831194541 | 74 | 198 | 6.0 | 11.0 | 0.04 | 0.06 | 0.06 | 50 | 1008.9 |
| 20260831193041 | 74 | 178 | 6.0 | 11.0 | 0.06 | 0.06 | 0.06 | 50 | 1009.0 |